Location: Middelsbur
(53.6609°N, 7.5020°E)
Time: 22:55:54
(UTC+00:00)

Lacrosse 5 rocket - Pass Details

Date: 06 July 2020
Orbit: 465 x 631 km, 57.0° (Epoch: 14 August)

Event Time Altitude Azimuth Distance (km) Brightness Sun altitude
Rises 21:08:13 0° 277° (W) 2,797 5.6 -7.5°
Reaches altitude 10° 21:10:34 10° 282° (WNW) 1,870 4.7 -7.6°
Maximum altitude 21:14:43 52° 359° (N) 684 2.2 -8.0°
Drops below altitude 10° 21:18:38 10° 77° (ENE) 1,767 3.7 -8.3°
Sets 21:20:48 0° 83° (E) 2,626 4.5 -8.5°
